User: anonymous   Login
Location: Les Coudrans
(46.1056°N, 1.1158°W)
Time: 01:32:41
(UTC+00:00)
Language:

DMSP B5D1-3 - Orbit

View from above orbital plane
View from above orbital plane
View from above satellite
View from above satellite

Ground track
Ground track

The orbit data is extracted from the following two-line orbital elements,

1 10820U 78042A   21127.52112655  .00000068  00000-0  38977-4 0  9994
2 10820  98.5291 323.3963 0010192 141.1191 219.0730 14.35384950245024
Epoch (UTC): 07 May 2021 12:30:25
Eccentricity: 0.0010192
inclination: 98.5291°
perigee height: 766 km
apogee height: 781 km
right ascension of ascending node: 323.3963°
argument of perigee: 141.1191°
revolutions per day: 14.35384950
mean anomaly at epoch: 219.0730°
orbit number at epoch: 24502

The dashed part of the orbit path shows where the satellite is in the earth's shadow,  

DLR